Regional Weather Roundup
Issued by NWS

Home | Current Version | Previous Version | Text Only | Print | Product List | Glossary On
Versions: 1 2 3 4 5 6 7 8 9 10 11 12 13 14 15 16 17 18 19 20 21 22 23 24 25 26 27 28 29 30 31 32 33 34 35 36 37 38 39 40 41 42 43 44 45 46 47 48 49 50
000
ASUS45 KSLC 191310
RWRUT

UTAH REGIONAL WEATHER ROUNDUP
NATIONAL WEATHER SERVICE SALT LAKE CITY UT
600 AM MST FRI DEC 19 2014

UTZ001>011-023>025-191400-

NORTHERN UTAH

CITY           SKY/WX    TMP DP  RH WIND       PRES   REMARKS
BRIGHAM CITY   CLOUDY    32  29  87 N5        30.19R WCI  28
HILL AFB       PTCLDY    31  23  73 E12       30.17S WCI  21
LOGAN          CLOUDY    30  27  88 W5        30.17S WCI  25
OGDEN          PTCLDY    32  24  72 S12       30.17S WCI  23
PROVO AIRPORT  PTCLDY    28  25  86 CALM      30.22S
SALT LAKE CITY PTCLDY    33  28  81 S10       30.18F WCI  25
VERNAL         CLOUDY    27  24  89 CALM      30.25R
WENDOVER       MOCLDY    25  19  80 CALM      30.17S
HEBER CITY     CLOUDY    21  19  93 CALM      30.21F
WEST JORDAN    CLEAR     32  30  93 S10       30.19F WCI  24

$$

UTZ012>022-026-027-191400-

SOUTHERN/CENTRAL UTAH

CITY           SKY/WX    TMP DP  RH WIND       PRES   REMARKS
BLANDING       PTCLDY    24  23  94 N7        30.28R WCI  16
BRYCE CANYON   PTCLDY     7   3  84 CALM      30.21R
CEDAR CITY     PTCLDY    21  18  88 CALM      30.19F
DELTA          MOCLDY    23  22  95 E5        30.19F WCI  17
MILFORD        PTCLDY    24  20  84 S6        30.18F WCI  17
MOAB/CYNLANDS  CLOUDY    33  32  96 CALM      30.22R
PRICE          CLEAR     20  15  81 NE5       30.19R WCI  13
ST GEORGE      MOSUNNY   34  28  80 CALM      30.26S
KANAB            N/A     28  27  93 N6        30.28R WCI  22

$$

REGIONAL REPORTS     COLORADO/ARIZONA

CITY           SKY/WX    TMP DP  RH WIND       PRES   REMARKS
CRAIG, CO      CLOUDY    24  19  81 NE5       30.20S HAZE    WCI  18
GRAND JUNCTION CLOUDY    30  27  88 S5        30.22R WCI  25
RIFLE          CLOUDY    29  23  78 SE3       30.22R
MONTROSE       CLOUDY    30  26  85 SE3       30.24R
CORTEZ         CLEAR     18  15  88 NE6       30.23R WCI  10
PAGE, AZ       CLEAR     33  26  75 CALM      30.22R
GRAND CANYON   CLEAR     16  14  92 E3        30.22R
KINGMAN        CLEAR     28  26  92 CALM      30.22R
FLAGSTAFF      PTCLDY    11   6  81 CALM      30.21R

$$

REGIONAL REPORTS    NEVADA/IDAHO/WYOMING

CITY           SKY/WX    TMP DP  RH WIND       PRES   REMARKS
LAS VEGAS, NV  PTCLDY    40  34  79 SW8       30.19R WCI  34
ELY            PTCLDY    17  14  88 SE8       30.18F WCI   7
ELKO           CLOUDY    25  23  92 CALM      30.12S
POCATELLO, ID  PTCLDY    36  28  73 S10       30.11F WCI  28
BURLEY         MOCLDY    37  26  64 S14       30.09S WCI  28
EVANSTON, WY   CLOUDY    22  20  92 SW10      30.15S WCI  11
ROCK SPRINGS   PTCLDY    19  15  84 SW15      30.14R WCI   5
KEMMERER       CLOUDY    23  21  93 SW8       30.13S WCI  14

$$



USA.gov is the U.S. government's official web portal to all federal, state and local government web resources and services.